Regional Weather Roundup
Issued by NWS

Home | Current Version | Previous Version | Text Only | Print | Product List | Glossary Off
Versions: 1 2 3 4 5 6 7 8 9 10 11 12 13 14 15 16 17 18 19 20 21 22 23 24 25 26 27 28 29 30 31 32 33 34 35 36 37 38 39 40 41 42 43 44 45 46 47 48 49 50

000
ASUS43 KIND 261309
RWRIN

WEATHER ROUNDUP FOR INDIANA
NATIONAL WEATHER SERVICE INDIANAPOLIS IN
900 AM EDT FRI MAY 26 2017

NOTE: "FAIR" INDICATES FEW OR NO CLOUDS BELOW 12,000 FEET WITH NO
SIGNIFICANT WEATHER AND/OR OBSTRUCTIONS TO VISIBILITY.

* - STATION DOES NOT REPORT WEATHER SUCH AS PRECIPITATION OR FOG.

+ - STATION NOT QUALITY CONTROLLED BY THE NATIONAL WEATHER SERVICE.
    USE DATA WITH CAUTION...ESPECIALLY DEWPOINT AND RELATIVE
    HUMIDITY OBSERVATIONS.

INZ001>003-010>013-019-020-261400-
NORTHWEST INDIANA

CITY           SKY/WX    TMP DP  RH WIND       PRES   REMARKS
GARY /AIRPORT/ MOSUNNY   59  54  82 CALM      29.88R
KNOX *+        SUNNY     55  46  71 CALM      29.88S
LA PORTE +     SUNNY     58  53  83 N3        29.88S
MICHIGAN CITY+ SUNNY     55  55 100 CALM      29.88S
MONTICELLO +   CLOUDY    57  55  91 CALM      29.89R
RENSSELAER +   CLOUDY    59  55  88 S3        29.89R
VALPARAISO     CLOUDY    62  55  77 CALM      29.88S

$$

LMZ046-743>745-261400-
SOUTHERN LAKE MICHIGAN

STATION/POSITION TIME  TEMP    WIND        PRES    WAVE
                       AIR SEA DIR/SP/G            HT
                 (UTC) (F)     (DEG/KT/KT) (MB)    (FT)
BURNS HARBOR     1240   59      CALM  /  1 1011.9S
MICHIGAN CITY    1240   55      30/  2/  3   N/A
5NW MICH CITY    1300   53 51   70/  2/  4   N/A     2

$$

INZ004-005-014>016-021>024-261400-
NORTH CENTRAL INDIANA

CITY           SKY/WX    TMP DP  RH WIND       PRES   REMARKS
ELKHART        CLOUDY    54  50  87 W3        29.88R
GOSHEN         CLOUDY    55  50  83 W3        29.88R
LOGANSPORT +   SUNNY     57  52  82 W3        29.91R
PERU/GRISSOM   MOSUNNY   59  57  93 W3        29.89R
ROCHESTER +    SUNNY     61  54  77 N3        29.89R
SOUTH BEND     CLOUDY    57  53  86 VRB3      29.89R
WARSAW +       CLOUDY    55  52  88 W3        29.88R

$$

INZ006>009-017-018-025>027-261400-
NORTHEAST INDIANA

CITY           SKY/WX    TMP DP  RH WIND       PRES   REMARKS
ANGOLA *+      CLOUDY    54  45  71 NW5       29.86R
AUBURN +       CLOUDY    54  52  94 W5        29.88S FOG
FORT WAYNE     MOSUNNY   58  52  80 W5        29.88R
HUNTINGTON +   SUNNY     57  54  89 W3        29.89R
KENDALLVILLE + CLOUDY    53  53 100 CALM      29.87S FOG

$$

INZ028-029-035-036-043>045-051>053-261400-
WEST CENTRAL INDIANA

CITY           SKY/WX    TMP DP  RH WIND       PRES   REMARKS
CRAWFORDSVL +  SUNNY     58  58 100 SE3       29.89S
GREENCASTLE +  CLOUDY    61  55  82 S5        29.90S
LAFAYETTE      MOSUNNY   57  56  96 CALM      29.89R FOG
TERRE HAUTE    CLOUDY    61  57  87 SE6       29.89R

$$

INZ030>032-037>040-046>048-054>057-064-065-261400-
CENTRAL INDIANA

CITY           SKY/WX    TMP DP  RH WIND       PRES   REMARKS
ANDERSON       SUNNY     59  52  77 SW5       29.91
CP ATTERBURY + CLOUDY    59  55  88 CALM      29.92R
COLUMBUS       SUNNY     59  55  88 S3        29.92R
FRANKFORT +    SUNNY     63  58  84 CALM      29.91R
GREENWOOD *+   CLOUDY    62  55  79 CALM      29.92R
INDIANAPOLIS   CLOUDY    60  56  86 SW3       29.91R
-EAGLE CREEK   SUNNY     61  56  83 CALM      29.90R
KOKOMO +       SUNNY     60  54  80 W5        29.91R
MARION +       SUNNY     57  54  88 NW7       29.91R
MT COMFORT *+  SUNNY     61  55  82 SW3       29.91R
SHELBYVILLE    CLOUDY    61  55  81 SW3       29.91R
ZIONSVILLE +   SUNNY     61  56  84 CALM      29.91S

$$

INZ033-034-041-042-049-050-058-059-261400-
EAST CENTRAL INDIANA

CITY           SKY/WX    TMP DP  RH WIND       PRES   REMARKS
MUNCIE         SUNNY     61  53  75 W8        29.90R
RICHMOND +     SUNNY     57  54  88 W7        29.92R FOG

$$

INZ060-061-067>069-081>083-085>088-261400-
SOUTHWEST INDIANA

CITY           SKY/WX    TMP DP  RH WIND       PRES   REMARKS
EVANSVILLE     SUNNY     67  56  67 S7        29.92R
HUNTINGBURG *+ SUNNY     63  56  78 S7        29.93R
WASHINGTON +   SUNNY     62  55  78 SE5       29.90R

$$

INZ062-063-066-070>080-084-089>092-261400-
SOUTH CENTRAL AND SOUTHEAST INDIANA

CITY           SKY/WX    TMP DP  RH WIND       PRES   REMARKS
BEDFORD +      SUNNY     59  55  88 CALM      29.92R
BLOOMINGTON    SUNNY     61  56  83 SE5       29.91R
MADISON *+     SUNNY     61  59  94 S3        29.95R
NORTH VERNON + MOSUNNY   57  55  94 S3        29.93R
SEYMOUR +      CLOUDY    63  57  82 S3        29.93R

$$





USA.gov is the U.S. government's official web portal to all federal, state and local government web resources and services.